[[{"header":{"parameterUnit":"m.s-1","parameterCategory":1,"la1":30.2992,"la2":30.254,"lo1":-89.0895,"lo2":-89.0443,"dy":0.0025,"dx":0.0025,"nx":19,"ny":19,"refTime":"2026-03-14T09:00:00:Z","depth":0,"parameterNumber":2,"parameterNumberName":"U-component_of_WINDS"},"data":[0,0,0,8.3355,8.3364,8.3784,8.3786,8.4314,8.4318,0,0,0,0,0,0,0,0,0,0,0,8.3232,8.3236,8.3354,8.3365,8.3784,8.3786,8.4313,8.4318,0,0,0,0,0,0,0,0,0,0,0,8.323,8.3235,8.3239,8.3367,8.3784,8.3786,8.4311,8.3996,0,0,0,0,0,0,0,0,0,0,8.359,8.3479,8.3234,8.324,8.3369,8.3783,8.3786,8.3981,8.4016,8.4122,0,8.4222,0,8.4279,8.4354,8.4355,0,0,0,8.3362,8.345,8.3563,8.324,8.3373,8.3783,8.3594,8.4001,8.404,8.4168,8.4229,8.4249,8.4288,8.4357,8.436,8.4993,8.4996,0,0,8.3339,8.3307,8.3536,8.3589,8.3531,8.3581,8.3607,8.4025,8.4087,8.4231,8.4261,8.4296,8.4361,8.4365,8.499,8.4994,0,0,0,8.3274,8.329,8.3393,8.3567,8.3643,8.3593,8.3624,8.4068,8.4105,8.4267,8.4303,8.4364,8.437,8.4987,8.4991,8.5117,0,0,0,8.326,8.3253,8.3383,8.3367,8.3636,8.3863,8.3658,8.4076,8.4124,8.43,8.4364,8.4375,8.4984,8.4989,8.5107,8.5182,0,0,0,8.3204,8.3246,8.3308,8.3365,8.3545,8.3857,8.3917,8.4087,8.4146,8.4356,8.4377,8.4981,8.4988,8.5097,8.5167,8.5343,0,0,0,8.3133,8.3409,8.3309,8.3631,8.3541,8.3932,8.3915,8.4206,8.4401,8.4366,8.4984,8.4991,8.5094,8.5157,8.5332,8.5487,8.5548,0,0,8.3464,8.3448,8.364,8.3563,8.3966,8.3871,8.4289,8.4495,8.4539,8.4837,8.4853,8.511,8.5166,8.534,8.5896,8.5944,0,0,0,8.3734,8.3872,8.3985,8.4173,8.434,8.4489,8.4634,8.471,8.4965,8.4689,8.522,8.5254,8.5358,8.5433,8.5475,8.5566,8.5024,8.5023,8.5022,8.4156,8.4205,8.4526,8.4625,8.4806,8.4954,8.5104,8.523,8.5221,8.5346,8.5436,8.5768,8.5856,8.5887,8.5982,8.5518,8.5519,8.5519,8.552,8.4647,8.4852,8.4837,8.5145,8.5192,8.5447,8.5598,8.5584,8.5826,8.5704,8.5797,8.5663,8.5939,8.6024,8.553,8.5528,8.5527,8.5526,8.5525,8.4933,8.504,8.513,8.5407,8.5613,8.5699,8.5935,8.5966,8.5997,8.6089,8.6189,8.6187,8.6191,8.6134,8.6135,8.6136,8.6137,8.6138,8.6139,8.5195,8.5293,8.5492,8.5693,8.5818,8.5985,8.6135,8.6256,8.6398,8.6402,8.6403,8.6383,8.5957,8.5851,8.6157,8.6154,8.6151,8.615,8.6148,8.5682,8.5577,8.5884,8.601,8.6248,8.645,8.6487,8.6732,8.6835,8.695,8.6909,8.6588,8.6572,8.654,8.6453,8.6897,8.6897,8.6897,8.6897,8.5926,8.5922,8.6244,8.6442,8.6639,8.6704,8.7044,8.7161,8.7263,8.733,8.7269,8.7154,8.7119,8.7125,8.708,8.6999,8.7572,8.7573,8.7574,8.623,8.6246,8.6534,8.664,8.6828,8.6987,8.7307,8.753,8.7624,8.7602,8.7383,8.7354,8.717,8.7107,8.7084,8.7013,8.6865,0,0]},{"header":{"parameterUnit":"m.s-1","parameterCategory":1,"la1":30.2992,"la2":30.254,"lo1":-89.0895,"lo2":-89.0443,"dy":0.0025,"dx":0.0025,"nx":19,"ny":19,"refTime":"2026-03-14T09:00:00:Z","depth":0,"parameterNumber":3,"parameterNumberName":"V-component_of_WINDS"},"data":[0,0,0,-7.404,-7.4013,-7.2642,-7.2636,-7.0951,-7.0937,0,0,0,0,0,0,0,0,0,0,0,-7.4529,-7.4521,-7.4042,-7.4011,-7.2643,-7.2636,-7.0954,-7.0937,0,0,0,0,0,0,0,0,0,0,0,-7.4533,-7.4523,-7.4513,-7.4006,-7.2645,-7.2635,-7.0957,-7.1956,0,0,0,0,0,0,0,0,0,0,-7.327,-7.3815,-7.4525,-7.4513,-7.3999,-7.2646,-7.2635,-7.2003,-7.1894,-7.1614,0,-7.1426,0,-7.1159,-7.0833,-7.0827,0,0,0,-7.3936,-7.3907,-7.3467,-7.4512,-7.3987,-7.2648,-7.3239,-7.1941,-7.1818,-7.1471,-7.14,-7.1335,-7.1131,-7.0823,-7.0815,-6.9535,-6.9533,0,0,-7.4012,-7.4317,-7.3553,-7.3392,-7.3655,-7.3284,-7.3198,-7.1865,-7.1792,-7.1394,-7.1293,-7.1103,-7.0812,-7.0801,-6.9538,-6.9535,0,0,0,-7.4279,-7.4374,-7.3963,-7.3464,-7.3216,-7.3246,-7.3146,-7.1851,-7.1694,-7.1274,-7.1084,-7.0804,-7.0784,-6.954,-6.9537,-6.9718,0,0,0,-7.4321,-7.4529,-7.4,-7.4172,-7.3244,-7.2525,-7.3166,-7.1787,-7.1626,-7.1092,-7.0803,-7.0769,-6.9543,-6.9538,-6.9719,-6.9745,0,0,0,-7.4587,-7.4559,-7.4395,-7.4192,-7.362,-7.254,-7.2303,-7.1745,-7.1513,-7.0826,-7.0765,-6.9545,-6.9539,-6.972,-6.9745,-6.9492,0,0,0,-7.4951,-7.4563,-7.4403,-7.3888,-7.3634,-7.268,-7.2309,-7.1572,-7.1007,-7.0795,-6.9542,-6.9537,-6.972,-6.9745,-6.9496,-6.9332,-6.9299,0,0,-7.4628,-7.4535,-7.4206,-7.4024,-7.3183,-7.2863,-7.2023,-7.1198,-7.0832,-6.9977,-6.9941,-6.9719,-6.9745,-6.9493,-6.9014,-6.8991,0,0,0,-7.4205,-7.3974,-7.3683,-7.3179,-7.2562,-7.2018,-7.1297,-7.0984,-7.025,-7.0473,-6.9554,-6.9559,-6.9397,-6.9302,-6.9281,-6.9113,-6.9511,-6.9512,-6.9513,-7.4176,-7.3758,-7.318,-7.2595,-7.2103,-7.1363,-7.0911,-7.0358,-7.0061,-6.985,-6.9591,-6.9357,-6.926,-6.9242,-6.9073,-6.9478,-6.9478,-6.9479,-6.9479,-7.3653,-7.3252,-7.2882,-7.2193,-7.1735,-7.1131,-7.0389,-7.0199,-6.9545,-6.9519,-6.9353,-6.9354,-6.923,-6.9056,-6.9488,-6.9486,-6.9485,-6.9484,-6.9484,-7.358,-7.3315,-7.2967,-7.2186,-7.1619,-7.1021,-7.042,-7.0017,-6.9628,-6.9468,-6.9137,-6.9133,-6.9065,-6.9343,-6.9342,-6.9341,-6.934,-6.934,-6.9339,-7.364,-7.3241,-7.2804,-7.2116,-7.1731,-7.1169,-7.0413,-7.0006,-6.9449,-6.9198,-6.9193,-6.8903,-6.9309,-6.9412,-6.9324,-6.9327,-6.9329,-6.933,-6.9331,-7.3249,-7.3275,-7.2602,-7.222,-7.1364,-7.0817,-7.0318,-6.9525,-6.9128,-6.8836,-6.8578,-6.8951,-6.8812,-6.8824,-6.8905,-6.869,-6.869,-6.869,-6.869,-7.318,-7.3082,-7.2296,-7.1708,-7.108,-7.0561,-6.9765,-6.9162,-6.8532,-6.8251,-6.8224,-6.8301,-6.8334,-6.8172,-6.8199,-6.8267,-6.7894,-6.7893,-6.7892,-7.2908,-7.2729,-7.2155,-7.1579,-7.0876,-7.0269,-6.9503,-6.8803,-6.8092,-6.7851,-6.8016,-6.805,-6.8169,-6.8234,-6.7994,-6.8046,-6.8163,0,0]}]]